Location: Estes Par
(40.3770°N, 105.5210°W)
Time: 22:20:29
(UTC-06:00)

Vanguard 2 - All Passes

Search period start: 17 August 2018 00:00
Search period end: 27 August 2018 00:00
Orbit: 554 x 2938 km, 32.9° (Epoch: 17 August)

Date Brightness Start Highest point End Pass type
(mag) Time Alt. Az. Time Alt. Az. Time Alt. Az.
17 Aug - 10:44:36 10° SW 10:47:40 20° SSE 10:50:42 10° ESE daylight
17 Aug - 12:51:39 10° WSW 12:55:17 32° S 12:59:45 10° ESE daylight
17 Aug - 14:59:20 10° WSW 15:03:17 24° SSW 15:08:40 10° SE daylight
17 Aug - 17:10:24 10° SW 17:12:00 11° SSW 17:13:43 10° S daylight
18 Aug - 08:57:03 10° S 08:57:49 10° SSE 08:58:36 10° SSE daylight
18 Aug - 11:02:11 10° SW 11:05:33 25° S 11:08:55 10° ESE daylight
18 Aug - 13:09:38 10° WSW 13:13:13 30° S 13:17:40 10° ESE daylight
18 Aug - 15:17:48 10° WSW 15:21:18 18° SSW 15:25:48 10° SSE daylight
19 Aug - 09:12:58 10° SSW 09:15:46 15° SSE 09:18:14 10° SE daylight
19 Aug - 11:19:57 10° SW 11:23:28 28° S 11:27:01 10° ESE daylight
19 Aug - 13:27:43 10° WSW 13:31:10 26° S 13:35:25 10° SE daylight
19 Aug - 15:36:53 10° SW 15:39:20 13° SSW 15:42:13 10° S daylight
20 Aug - 09:30:08 10° SW 09:33:42 20° SSE 09:36:45 10° ESE daylight
20 Aug - 11:37:51 10° WSW 11:41:23 29° S 11:45:00 10° ESE daylight
20 Aug - 13:45:57 10° WSW 13:49:07 21° SSW 13:52:57 10° SE daylight
21 Aug - 07:41:08 10° S 07:43:34 12° SSE 07:45:42 10° SE daylight
21 Aug - 09:47:39 10° SW 09:51:39 25° S 09:54:59 10° ESE daylight
21 Aug - 11:55:51 10° WSW 11:59:19 28° S 12:02:54 10° SE daylight
21 Aug - 14:04:29 10° SW 14:07:05 16° SSW 14:10:06 10° SSE daylight
22 Aug - 07:57:30 10° SSW 08:01:35 18° SSE 08:04:50 10° ESE daylight
22 Aug - 10:05:25 10° SW 10:09:35 29° S 10:13:05 10° ESE daylight
22 Aug - 12:13:56 10° WSW 12:17:14 24° S 12:20:41 10° SE daylight
22 Aug - 14:23:59 10° SSW 14:25:02 11° SSW 14:26:08 10° S daylight
23 Aug - 06:10:23 10° SSE 06:11:00 10° SSE 06:11:35 10° SSE daylight
23 Aug - 08:14:39 10° SW 08:19:36 23° SSE 08:23:19 10° ESE daylight
23 Aug - 10:23:19 10° WSW 10:27:31 31° S 10:31:04 10° ESE daylight
23 Aug - 12:32:10 10° WSW 12:35:08 20° SSW 12:38:14 10° SE daylight
24 Aug - 06:24:36 10° SSW 06:29:05 15° SSE 06:32:39 10° SE daylight
24 Aug - 08:32:10 10° SW 08:37:36 28° S 08:41:33 10° ESE daylight
24 Aug - 10:41:20 10° WSW 10:45:26 30° S 10:48:58 10° ESE daylight
24 Aug - 12:50:41 10° SW 12:53:01 15° SSW 12:55:26 10° SSE daylight
25 Aug - 06:41:06 10° SSW 06:47:09 21° SSE 06:51:35 10° ESE daylight
25 Aug - 08:49:56 10° WSW 08:55:34 33° S 08:59:37 10° ESE daylight
25 Aug - 10:59:25 10° WSW 11:03:21 28° SSW 11:06:46 10° SE daylight
25 Aug - 13:10:19 10° SSW 13:10:52 10° SSW 13:11:26 10° SSW daylight
26 Aug - 04:52:09 10° S 04:56:05 13° SSE 04:59:26 10° SE visible
26 Aug - 06:58:13 10° SW 07:05:13 27° SSE 07:10:02 10° ESE daylight
26 Aug - 09:07:51 10° WSW 09:13:32 36° S 09:17:37 10° ESE daylight
26 Aug - 11:17:38 10° WSW 11:21:13 23° SSW 11:24:24 10° SE daylight
